Location: ????????
(55.7667°N, 37.4833°E)
Time: 13:21:21
(UTC+00:00)

USA 238 DEB - Pass Details

Date: 19 May 2025
Orbit: 899 x 1311 km, 63.4° (Epoch: 11 June)

Event Time Altitude Azimuth Distance (km) Brightness Sun altitude
Rises 23:06:08 0° 307° (NW) 3,869 6.8 -11.4°
Reaches altitude 10° 23:08:41 10° 308° (NW) 2,968 6.2 -11.2°
Maximum altitude 23:15:51 89° 38° (NE) 1,193 4.0 -10.8°
Drops below altitude 10° 23:23:44 10° 130° (SE) 3,242 6.1 -10.3°
Sets 23:26:37 0° 130° (SE) 4,244 6.7 -10.1°
